{"data":{"norad_id":64427,"epoch":"2026-05-24T18:07:27.529536Z","epoch_age_seconds":92091,"freshness":"FRESH","line1":"1 64427U 25129R   26144.75517974  .00003456  00000+0  29725-3 0  9999","line2":"2 64427  70.0004 242.5611 0003316 268.9169  91.1610 14.98339027 52686","mean_motion":14.98339027,"eccentricity":0.0003316,"inclination_deg":70.0004,"raan_deg":242.5611,"arg_perigee_deg":268.9169,"mean_anomaly_deg":91.161,"bstar":0.00029725,"rev_number":5268,"period_min":96.106420112622,"perigee_km":569.72330112572,"apogee_km":574.33265053769,"semimajor_km":6950.1649758317,"source":"CELESTRAK","updated_at":"2026-05-25T13:38:20.442245Z"}}